Time,TemperatureF,DewpointF,PressureIn,WindDirection,WindDirectionDegrees,WindSpeedMPH,WindSpeedGustMPH,Humidity,HourlyPrecipIn,Conditions,Clouds,dailyrainin,SolarRadiationWatts/m^2,SoftwareType,DateUTC
2013-03-13 00:00:00,40.7,30.2,30.00,West,278,5.0,5.0,66,0.00,,,0.50,0,Wunderground v.1.15,2013-03-13 04:00:00,
2013-03-13 00:02:00,40.7,29.8,30.00,WNW,292,5.0,5.0,65,0.00,,,0.00,0,Wunderground v.1.15,2013-03-13 04:02:00,
2013-03-13 00:04:00,40.7,30.2,30.00,NNW,334,5.0,6.0,66,0.00,,,0.00,0,Wunderground v.1.15,2013-03-13 04:04:00,
2013-03-13 00:09:00,40.6,29.7,30.00,NW,304,5.0,6.0,65,0.00,,,0.00,0,Wunderground v.1.15,2013-03-13 04:09:00,
2013-03-13 00:12:00,40.6,30.1,30.00,West,276,6.0,9.0,66,0.00,,,0.00,0,Wunderground v.1.15,2013-03-13 04:12:00,
2013-03-13 00:18:00,40.5,29.7,30.00,NW,321,6.0,9.0,65,0.00,,,0.00,0,Wunderground v.1.15,2013-03-13 04:18:00,
2013-03-13 00:23:00,40.5,28.9,30.00,NW,317,7.0,13.0,63,0.00,,,0.00,0,Wunderground v.1.15,2013-03-13 04:23:00,
2013-03-13 00:28:00,40.5,28.9,30.00,NW,306,8.0,13.0,63,0.00,,,0.00,0,Wunderground v.1.15,2013-03-13 04:28:00,
2013-03-13 00:34:00,40.5,29.3,30.00,WNW,301,7.0,8.0,64,0.00,,,0.00,0,Wunderground v.1.15,2013-03-13 04:34:00,
2013-03-13 00:40:00,40.4,29.6,30.00,WNW,302,6.0,6.0,65,0.00,,,0.00,0,Wunderground v.1.15,2013-03-13 04:40:00,
2013-03-13 00:45:00,40.4,29.6,30.00,WNW,288,4.0,6.0,65,0.00,,,0.00,0,Wunderground v.1.15,2013-03-13 04:45:00,
2013-03-13 00:50:00,40.4,29.6,30.00,West,279,4.0,4.0,65,0.00,,,0.00,0,Wunderground v.1.15,2013-03-13 04:50:00,
2013-03-13 00:55:00,40.4,29.6,30.00,WNW,287,4.0,8.0,65,0.00,,,0.00,0,Wunderground v.1.15,2013-03-13 04:55:00,
2013-03-13 01:00:00,40.4,29.9,30.00,WNW,292,4.0,4.0,66,0.00,,,0.00,0,Wunderground v.1.15,2013-03-13 05:00:00,
2013-03-13 01:06:00,40.3,29.8,30.00,WNW,300,4.0,6.0,66,0.00,,,0.00,0,Wunderground v.1.15,2013-03-13 05:06:00,
2013-03-13 01:11:00,40.3,29.8,30.00,WNW,290,4.0,4.0,66,0.00,,,0.00,0,Wunderground v.1.15,2013-03-13 05:11:00,
2013-03-13 01:17:00,40.2,29.7,30.00,WNW,288,4.0,4.0,66,0.00,,,0.00,0,Wunderground v.1.15,2013-03-13 05:17:00,
2013-03-13 01:23:00,40.2,30.1,29.99,WNW,296,4.0,4.0,67,0.00,,,0.00,0,Wunderground v.1.15,2013-03-13 05:23:00,
2013-03-13 01:29:00,40.1,30.0,29.99,WNW,295,3.0,6.0,67,0.00,,,0.00,0,Wunderground v.1.15,2013-03-13 05:29:00,
2013-03-13 01:35:00,40.0,30.3,29.99,WNW,297,4.0,5.0,68,0.00,,,0.00,0,Wunderground v.1.15,2013-03-13 05:35:00,
2013-03-13 01:40:00,40.1,30.4,29.99,WNW,283,3.0,4.0,68,0.00,,,0.00,0,Wunderground v.1.15,2013-03-13 05:40:00,
2013-03-13 01:46:00,40.0,30.3,29.99,WNW,293,3.0,5.0,68,0.00,,,0.00,0,Wunderground v.1.15,2013-03-13 05:46:00,
2013-03-13 01:52:00,40.0,30.3,29.99,West,269,3.0,5.0,68,0.00,,,0.00,0,Wunderground v.1.15,2013-03-13 05:52:00,
2013-03-13 01:58:00,39.9,30.2,29.99,West,267,2.0,5.0,68,0.00,,,0.00,0,Wunderground v.1.15,2013-03-13 05:58:00,
2013-03-13 02:04:00,40.0,30.6,29.99,West,274,2.0,3.0,69,0.00,,,0.00,0,Wunderground v.1.15,2013-03-13 06:04:00,
2013-03-13 02:09:00,40.0,30.6,29.99,South,181,2.0,3.0,69,0.00,,,0.00,0,Wunderground v.1.15,2013-03-13 06:09:00,
2013-03-13 02:15:00,39.9,30.5,29.99,SW,221,2.0,2.0,69,0.00,,,0.00,0,Wunderground v.1.15,2013-03-13 06:15:00,
2013-03-13 02:20:00,39.8,30.1,29.99,West,263,2.0,5.0,68,0.00,,,0.00,0,Wunderground v.1.15,2013-03-13 06:20:00,
2013-03-13 02:26:00,39.7,30.4,29.99,West,277,2.0,5.0,69,0.00,,,0.00,0,Wunderground v.1.15,2013-03-13 06:26:00,
2013-03-13 02:32:00,39.6,30.3,29.99,WNW,289,2.0,3.0,69,0.00,,,0.00,0,Wunderground v.1.15,2013-03-13 06:32:00,
2013-03-13 02:38:00,39.5,29.8,29.99,WNW,286,2.0,5.0,68,0.00,,,0.00,0,Wunderground v.1.15,2013-03-13 06:38:00,
2013-03-13 02:44:00,39.4,29.7,29.99,SE,134,2.0,3.0,68,0.00,,,0.00,0,Wunderground v.1.15,2013-03-13 06:44:00,
2013-03-13 02:50:00,39.3,29.6,29.98,South,171,1.0,1.0,68,0.00,,,0.00,0,Wunderground v.1.15,2013-03-13 06:50:00,
2013-03-13 02:56:00,39.2,29.5,29.98,West,259,1.0,2.0,68,0.00,,,0.00,0,Wunderground v.1.15,2013-03-13 06:56:00,
2013-03-13 03:02:00,39.0,29.7,29.98,West,266,2.0,4.0,69,0.00,,,0.00,0,Wunderground v.1.15,2013-03-13 07:02:00,
2013-03-13 03:07:00,38.9,29.6,29.98,WNW,291,3.0,6.0,69,0.00,,,0.00,0,Wunderground v.1.15,2013-03-13 07:07:00,
2013-03-13 03:12:00,38.7,29.4,29.98,WNW,284,3.0,4.0,69,0.00,,,0.00,0,Wunderground v.1.15,2013-03-13 07:12:00,
2013-03-13 03:18:00,38.7,29.4,29.98,West,278,2.0,4.0,69,0.00,,,0.00,0,Wunderground v.1.15,2013-03-13 07:18:00,
2013-03-13 03:24:00,38.6,28.6,29.98,WNW,292,2.0,4.0,67,0.00,,,0.00,0,Wunderground v.1.15,2013-03-13 07:24:00,
2013-03-13 03:29:00,38.5,28.9,29.98,WNW,291,2.0,4.0,68,0.00,,,0.00,0,Wunderground v.1.15,2013-03-13 07:29:00,
2013-03-13 03:35:00,38.3,28.7,29.98,NW,308,2.0,6.0,68,0.00,,,0.00,0,Wunderground v.1.15,2013-03-13 07:35:00,
2013-03-13 03:41:00,38.1,28.5,29.98,WNW,284,4.0,4.0,68,0.00,,,0.00,0,Wunderground v.1.15,2013-03-13 07:41:00,
2013-03-13 03:47:00,38.0,28.4,29.98,WNW,297,3.0,4.0,68,0.00,,,0.00,0,Wunderground v.1.15,2013-03-13 07:47:00,
2013-03-13 03:53:00,37.8,28.2,29.97,WNW,296,3.0,4.0,68,0.00,,,0.00,0,Wunderground v.1.15,2013-03-13 07:53:00,
2013-03-13 03:59:00,37.6,28.0,29.97,NW,309,2.0,4.0,68,0.00,,,0.00,0,Wunderground v.1.15,2013-03-13 07:59:00,
2013-03-13 04:05:00,37.4,27.8,29.97,WNW,296,1.0,2.0,68,0.00,,,0.00,0,Wunderground v.1.15,2013-03-13 08:05:00,
2013-03-13 04:10:00,37.4,27.8,29.97,WNW,292,1.0,3.0,68,0.00,,,0.00,0,Wunderground v.1.15,2013-03-13 08:10:00,
2013-03-13 04:16:00,37.5,27.9,29.97,West,271,1.0,4.0,68,0.00,,,0.00,0,Wunderground v.1.15,2013-03-13 08:16:00,
2013-03-13 04:22:00,37.4,27.8,29.97,West,273,1.0,1.0,68,0.00,,,0.00,0,Wunderground v.1.15,2013-03-13 08:22:00,
2013-03-13 04:27:00,37.3,27.7,29.96,WSW,252,1.0,2.0,68,0.00,,,0.00,0,Wunderground v.1.15,2013-03-13 08:27:00,
2013-03-13 04:32:00,37.2,28.0,29.96,WSW,253,1.0,2.0,69,0.00,,,0.00,0,Wunderground v.1.15,2013-03-13 08:32:00,
2013-03-13 04:37:00,37.0,27.8,29.96,West,278,1.0,4.0,69,0.00,,,0.00,0,Wunderground v.1.15,2013-03-13 08:37:00,
2013-03-13 04:42:00,36.9,28.0,29.96,West,269,1.0,1.0,70,0.00,,,0.00,0,Wunderground v.1.15,2013-03-13 08:42:00,
2013-03-13 04:48:00,36.8,27.9,29.96,West,269,1.0,1.0,70,0.00,,,0.00,0,Wunderground v.1.15,2013-03-13 08:48:00,
2013-03-13 04:53:00,36.6,27.7,29.96,West,269,1.0,1.0,70,0.00,,,0.00,0,Wunderground v.1.15,2013-03-13 08:53:00,
2013-03-13 04:58:00,36.5,28.0,29.96,West,270,1.0,1.0,71,0.00,,,0.00,0,Wunderground v.1.15,2013-03-13 08:58:00,
2013-03-13 05:05:00,36.4,27.9,29.97,WNW,288,1.0,3.0,71,0.00,,,0.00,0,Wunderground v.1.15,2013-03-13 09:05:00,
2013-03-13 05:11:00,36.2,28.0,29.96,WNW,284,1.0,2.0,72,0.00,,,0.00,0,Wunderground v.1.15,2013-03-13 09:11:00,
2013-03-13 05:17:00,36.0,27.8,29.97,West,281,1.0,3.0,72,0.00,,,0.00,0,Wunderground v.1.15,2013-03-13 09:17:00,
2013-03-13 05:23:00,35.9,27.7,29.97,WNW,290,2.0,4.0,72,0.00,,,0.00,0,Wunderground v.1.15,2013-03-13 09:23:00,
2013-03-13 05:29:00,35.9,27.7,29.97,WNW,286,2.0,4.0,72,0.00,,,0.00,0,Wunderground v.1.15,2013-03-13 09:29:00,
2013-03-13 05:35:00,35.8,28.0,29.97,West,271,3.0,5.0,73,0.00,,,0.00,0,Wunderground v.1.15,2013-03-13 09:35:00,
2013-03-13 05:40:00,35.7,27.9,29.97,West,281,3.0,5.0,73,0.00,,,0.00,0,Wunderground v.1.15,2013-03-13 09:40:00,
2013-03-13 05:47:00,35.6,27.8,29.97,WNW,294,3.0,5.0,73,0.00,,,0.00,0,Wunderground v.1.15,2013-03-13 09:47:00,
2013-03-13 05:53:00,35.7,27.9,29.97,WNW,293,3.0,5.0,73,0.00,,,0.00,0,Wunderground v.1.15,2013-03-13 09:53:00,
2013-03-13 05:59:00,35.5,27.7,29.97,NW,313,5.0,6.0,73,0.00,,,0.00,0,Wunderground v.1.15,2013-03-13 09:59:00,
2013-03-13 06:04:00,35.5,27.7,29.97,WNW,294,5.0,6.0,73,0.00,,,0.00,0,Wunderground v.1.15,2013-03-13 10:04:00,
2013-03-13 06:10:00,35.6,27.5,29.97,NW,308,5.0,5.0,72,0.00,,,0.00,0,Wunderground v.1.15,2013-03-13 10:10:00,
2013-03-13 06:16:00,35.7,27.6,29.97,WNW,290,4.0,5.0,72,0.00,,,0.00,0,Wunderground v.1.15,2013-03-13 10:16:00,
2013-03-13 06:21:00,35.6,27.5,29.97,WNW,301,3.0,3.0,72,0.00,,,0.00,0,Wunderground v.1.15,2013-03-13 10:21:00,
2013-03-13 06:27:00,35.4,27.3,29.97,NW,326,3.0,5.0,72,0.00,,,0.00,0,Wunderground v.1.15,2013-03-13 10:27:00,
2013-03-13 06:33:00,35.3,27.5,29.97,NW,320,3.0,5.0,73,0.00,,,0.00,0,Wunderground v.1.15,2013-03-13 10:33:00,
2013-03-13 06:38:00,35.1,27.3,29.97,WNW,290,3.0,5.0,73,0.00,,,0.00,0,Wunderground v.1.15,2013-03-13 10:38:00,
2013-03-13 06:43:00,35.1,27.0,29.97,WNW,293,3.0,5.0,72,0.00,,,0.00,0,Wunderground v.1.15,2013-03-13 10:43:00,
2013-03-13 06:49:00,35.1,27.0,29.97,WNW,292,4.0,5.0,72,0.00,,,0.00,0,Wunderground v.1.15,2013-03-13 10:49:00,
2013-03-13 06:54:00,35.1,27.0,29.97,West,281,3.0,4.0,72,0.00,,,0.00,0,Wunderground v.1.15,2013-03-13 10:54:00,
2013-03-13 07:01:00,35.0,26.9,29.97,WNW,283,3.0,3.0,72,0.00,,,0.00,0,Wunderground v.1.15,2013-03-13 11:01:00,
2013-03-13 07:07:00,34.7,26.9,29.98,WNW,287,2.0,5.0,73,0.00,,,0.00,0,Wunderground v.1.15,2013-03-13 11:07:00,
2013-03-13 07:13:00,34.5,26.4,29.98,WNW,288,3.0,5.0,72,0.00,,,0.00,0,Wunderground v.1.15,2013-03-13 11:13:00,
2013-03-13 07:19:00,34.4,26.3,29.98,West,277,3.0,5.0,72,0.00,,,0.00,0,Wunderground v.1.15,2013-03-13 11:19:00,
2013-03-13 07:24:00,34.5,26.4,29.98,WNW,295,3.0,3.0,72,0.00,,,0.00,5,Wunderground v.1.15,2013-03-13 11:24:00,
2013-03-13 07:30:00,34.4,26.3,29.97,WNW,290,3.0,3.0,72,0.00,,,0.00,9,Wunderground v.1.15,2013-03-13 11:30:00,
2013-03-13 07:36:00,34.6,25.8,29.98,West,279,3.0,4.0,70,0.00,,,0.00,14,Wunderground v.1.15,2013-03-13 11:36:00,
2013-03-13 07:42:00,34.7,25.9,29.98,WNW,288,4.0,4.0,70,0.00,,,0.00,18,Wunderground v.1.15,2013-03-13 11:42:00,
2013-03-13 07:47:00,34.7,25.9,29.98,WNW,298,3.0,5.0,70,0.00,,,0.00,19,Wunderground v.1.15,2013-03-13 11:47:00,
2013-03-13 07:53:00,34.7,26.3,29.98,WNW,293,3.0,3.0,71,0.00,,,0.00,23,Wunderground v.1.15,2013-03-13 11:53:00,
2013-03-13 07:58:00,34.7,26.3,29.98,WNW,286,2.0,3.0,71,0.00,,,0.00,26,Wunderground v.1.15,2013-03-13 11:58:00,
2013-03-13 08:05:00,34.7,26.6,29.99,SSW,199,1.0,2.0,72,0.00,,,0.00,30,Wunderground v.1.15,2013-03-13 12:05:00,
2013-03-13 08:11:00,34.7,26.9,29.99,SE,132,1.0,2.0,73,0.00,,,0.00,33,Wunderground v.1.15,2013-03-13 12:11:00,
2013-03-13 08:17:00,34.7,26.6,29.98,SE,142,1.0,2.0,72,0.00,,,0.00,35,Wunderground v.1.15,2013-03-13 12:17:00,
2013-03-13 08:22:00,34.7,26.9,29.99,WSW,245,1.0,2.0,73,0.00,,,0.00,42,Wunderground v.1.15,2013-03-13 12:22:00,
2013-03-13 08:28:00,34.8,26.7,29.98,South,175,0.0,2.0,72,0.00,,,0.00,65,Wunderground v.1.15,2013-03-13 12:28:00,
2013-03-13 08:33:00,35.0,26.9,29.98,SW,221,1.0,1.0,72,0.00,,,0.00,47,Wunderground v.1.15,2013-03-13 12:33:00,
2013-03-13 08:39:00,35.2,26.7,29.98,SSE,168,1.0,2.0,71,0.00,,,0.00,107,Wunderground v.1.15,2013-03-13 12:39:00,
2013-03-13 08:44:00,35.4,26.6,29.98,West,261,1.0,2.0,70,0.00,,,0.00,67,Wunderground v.1.15,2013-03-13 12:44:00,
2013-03-13 08:50:00,35.6,26.8,29.99,SSE,157,1.0,1.0,70,0.00,,,0.00,49,Wunderground v.1.15,2013-03-13 12:50:00,
2013-03-13 08:55:00,35.8,26.6,29.99,East,99,2.0,6.0,69,0.00,,,0.00,51,Wunderground v.1.15,2013-03-13 12:55:00,
2013-03-13 09:01:00,35.9,26.4,29.99,SE,126,2.0,5.0,68,0.00,,,0.00,51,Wunderground v.1.15,2013-03-13 13:01:00,
2013-03-13 09:06:00,36.2,26.6,29.99,SE,130,3.0,5.0,68,0.00,,,0.00,54,Wunderground v.1.15,2013-03-13 13:06:00,
2013-03-13 09:12:00,36.5,26.9,29.99,ESE,111,3.0,6.0,68,0.00,,,0.00,56,Wunderground v.1.15,2013-03-13 13:12:00,
2013-03-13 09:19:00,36.9,27.3,29.99,SE,142,3.0,6.0,68,0.00,,,0.00,316,Wunderground v.1.15,2013-03-13 13:19:00,
2013-03-13 09:25:00,37.4,27.1,29.99,SE,128,4.0,8.0,66,0.00,,,0.00,334,Wunderground v.1.15,2013-03-13 13:25:00,
2013-03-13 09:30:00,37.7,27.7,29.98,SSE,165,5.0,5.0,67,0.00,,,0.00,355,Wunderground v.1.15,2013-03-13 13:30:00,
2013-03-13 09:35:00,38.2,27.1,29.98,SE,130,4.0,7.0,64,0.00,,,0.00,380,Wunderground v.1.15,2013-03-13 13:35:00,
2013-03-13 09:41:00,38.5,26.6,29.98,SE,127,6.0,7.0,62,0.00,,,0.00,401,Wunderground v.1.15,2013-03-13 13:41:00,
2013-03-13 09:46:00,39.0,26.7,29.98,SE,136,5.0,7.0,61,0.00,,,0.00,506,Wunderground v.1.15,2013-03-13 13:46:00,
2013-03-13 09:51:00,39.4,25.8,29.99,SE,129,5.0,9.0,58,0.00,,,0.00,508,Wunderground v.1.15,2013-03-13 13:51:00,
2013-03-13 09:57:00,39.2,26.5,29.99,ESE,113,6.0,9.0,60,0.00,,,0.00,179,Wunderground v.1.15,2013-03-13 13:57:00,
2013-03-13 10:03:00,38.9,25.4,29.99,West,273,4.0,5.0,58,0.00,,,0.00,209,Wunderground v.1.15,2013-03-13 14:03:00,
2013-03-13 10:08:00,38.7,26.0,29.99,WNW,296,4.0,8.0,60,0.00,,,0.00,193,Wunderground v.1.15,2013-03-13 14:08:00,
2013-03-13 10:14:00,38.6,26.3,29.99,WNW,288,5.0,9.0,61,0.00,,,0.00,113,Wunderground v.1.15,2013-03-13 14:14:00,
2013-03-13 10:20:00,38.7,26.8,29.99,SSW,212,5.0,5.0,62,0.00,,,0.00,100,Wunderground v.1.15,2013-03-13 14:20:00,
2013-03-13 10:25:00,38.6,26.7,29.99,ESE,123,5.0,8.0,62,0.00,,,0.00,156,Wunderground v.1.15,2013-03-13 14:25:00,
2013-03-13 10:32:00,38.5,27.0,29.99,SE,146,6.0,8.0,63,0.00,,,0.00,248,Wunderground v.1.15,2013-03-13 14:32:00,
2013-03-13 10:37:00,38.8,27.7,29.98,SE,130,5.0,8.0,64,0.00,,,0.00,200,Wunderground v.1.15,2013-03-13 14:37:00,
2013-03-13 10:43:00,39.0,27.8,29.98,SE,138,3.0,4.0,64,0.00,,,0.00,195,Wunderground v.1.15,2013-03-13 14:43:00,
2013-03-13 10:49:00,39.2,27.7,29.98,ESE,123,3.0,7.0,63,0.00,,,0.00,236,Wunderground v.1.15,2013-03-13 14:49:00,
2013-03-13 10:54:00,39.7,28.1,29.98,West,265,4.0,4.0,63,0.00,,,0.00,659,Wunderground v.1.15,2013-03-13 14:54:00,
2013-03-13 10:59:00,40.1,27.7,29.97,NW,314,3.0,4.0,61,0.00,,,0.00,643,Wunderground v.1.15,2013-03-13 14:59:00,
2013-03-13 11:04:00,39.8,27.0,29.97,NNW,348,5.0,9.0,60,0.00,,,0.00,626,Wunderground v.1.15,2013-03-13 15:04:00,
2013-03-13 11:11:00,40.3,27.9,29.97,West,273,6.0,6.0,61,0.00,,,0.00,694,Wunderground v.1.15,2013-03-13 15:11:00,
2013-03-13 11:17:00,40.8,27.6,29.97,ESE,112,3.0,6.0,59,0.00,,,0.00,729,Wunderground v.1.15,2013-03-13 15:17:00,
2013-03-13 11:23:00,41.1,28.3,29.97,West,275,5.0,13.0,60,0.00,,,0.00,803,Wunderground v.1.15,2013-03-13 15:23:00,
2013-03-13 11:28:00,41.7,28.4,29.97,SSE,148,5.0,13.0,59,0.00,,,0.00,306,Wunderground v.1.15,2013-03-13 15:28:00,
2013-03-13 11:34:00,41.9,27.3,29.97,West,263,4.0,8.0,56,0.00,,,0.00,851,Wunderground v.1.15,2013-03-13 15:34:00,
2013-03-13 11:40:00,41.8,27.2,29.97,SE,128,6.0,6.0,56,0.00,,,0.00,889,Wunderground v.1.15,2013-03-13 15:40:00,
2013-03-13 11:45:00,41.5,27.8,29.97,WSW,256,7.0,15.0,58,0.00,,,0.00,896,Wunderground v.1.15,2013-03-13 15:45:00,
2013-03-13 11:51:00,42.1,28.4,29.96,West,279,5.0,6.0,58,0.00,,,0.00,949,Wunderground v.1.15,2013-03-13 15:51:00,
2013-03-13 11:57:00,42.2,27.6,29.97,West,281,4.0,8.0,56,0.00,,,0.00,258,Wunderground v.1.15,2013-03-13 15:57:00,
2013-03-13 12:02:00,41.5,27.4,29.96,ESE,121,5.0,5.0,57,0.00,,,0.00,79,Wunderground v.1.15,2013-03-13 16:02:00,
2013-03-13 12:09:00,41.0,27.3,29.96,WSW,246,5.0,8.0,58,0.00,,,0.00,199,Wunderground v.1.15,2013-03-13 16:09:00,
2013-03-13 12:14:00,40.9,27.7,29.96,ESE,119,5.0,8.0,59,0.00,,,0.00,188,Wunderground v.1.15,2013-03-13 16:14:00,
2013-03-13 12:21:00,41.3,28.4,29.95,SE,129,5.0,8.0,60,0.00,,,0.00,290,Wunderground v.1.15,2013-03-13 16:21:00,
2013-03-13 12:26:00,41.9,27.8,29.95,SE,132,6.0,10.0,57,0.00,,,0.00,838,Wunderground v.1.15,2013-03-13 16:26:00,
2013-03-13 12:31:00,42.4,28.2,29.95,WNW,298,6.0,12.0,57,0.00,,,0.00,833,Wunderground v.1.15,2013-03-13 16:31:00,
2013-03-13 12:37:00,42.6,28.0,29.95,SE,138,5.0,12.0,56,0.00,,,0.00,294,Wunderground v.1.15,2013-03-13 16:37:00,
2013-03-13 12:43:00,42.5,27.9,29.94,ESE,123,6.0,14.0,56,0.00,,,0.00,993,Wunderground v.1.15,2013-03-13 16:43:00,
2013-03-13 12:48:00,42.9,28.3,29.94,NNW,328,7.0,14.0,56,0.00,,,0.00,265,Wunderground v.1.15,2013-03-13 16:48:00,
2013-03-13 12:53:00,43.1,28.0,29.94,WSW,242,5.0,7.0,55,0.00,,,0.00,181,Wunderground v.1.15,2013-03-13 16:53:00,
2013-03-13 12:58:00,43.0,27.9,29.94,NNW,328,4.0,9.0,55,0.00,,,0.00,163,Wunderground v.1.15,2013-03-13 16:58:00,
2013-03-13 13:04:00,42.8,27.3,29.94,WSW,246,5.0,9.0,54,0.00,,,0.00,230,Wunderground v.1.15,2013-03-13 17:04:00,
2013-03-13 13:09:00,43.5,28.4,29.94,West,278,5.0,5.0,55,0.00,,,0.00,879,Wunderground v.1.15,2013-03-13 17:09:00,
2013-03-13 13:15:00,44.2,28.1,29.93,West,267,4.0,8.0,53,0.00,,,0.00,174,Wunderground v.1.15,2013-03-13 17:15:00,
2013-03-13 13:21:00,43.7,27.7,29.94,West,276,4.0,6.0,53,0.00,,,0.00,105,Wunderground v.1.15,2013-03-13 17:21:00,
2013-03-13 13:26:00,43.2,26.7,29.93,NNW,340,5.0,9.0,52,0.00,,,0.00,135,Wunderground v.1.15,2013-03-13 17:26:00,
2013-03-13 13:32:00,43.0,26.1,29.93,NNW,340,7.0,12.0,51,0.00,,,0.00,230,Wunderground v.1.15,2013-03-13 17:32:00,
2013-03-13 13:38:00,43.4,26.9,29.93,WNW,291,8.0,12.0,52,0.00,,,0.00,204,Wunderground v.1.15,2013-03-13 17:38:00,
2013-03-13 13:43:00,42.8,25.9,29.92,WNW,292,8.0,10.0,51,0.00,,,0.00,120,Wunderground v.1.15,2013-03-13 17:43:00,
2013-03-13 13:50:00,42.4,27.8,29.93,West,281,9.0,9.0,56,0.00,,,0.00,98,Wunderground v.1.15,2013-03-13 17:50:00,
2013-03-13 13:56:00,40.8,29.9,29.94,West,278,10.0,11.0,65,0.00,,,0.00,179,Wunderground v.1.15,2013-03-13 17:56:00,
2013-03-13 14:02:00,39.1,31.2,29.94,North,355,11.0,13.0,73,0.00,,,0.00,162,Wunderground v.1.15,2013-03-13 18:02:00,
2013-03-13 14:07:00,38.4,31.5,29.95,WNW,294,11.0,15.0,76,0.00,,,0.00,134,Wunderground v.1.15,2013-03-13 18:07:00,
2013-03-13 14:13:00,38.3,31.7,29.95,WNW,292,9.0,10.0,77,0.00,,,0.00,167,Wunderground v.1.15,2013-03-13 18:13:00,
2013-03-13 14:19:00,37.6,30.4,29.95,NW,306,8.0,10.0,75,0.00,,,0.00,179,Wunderground v.1.15,2013-03-13 18:19:00,
2013-03-13 14:25:00,37.4,30.5,29.95,WNW,298,6.0,8.0,76,0.00,,,0.00,183,Wunderground v.1.15,2013-03-13 18:25:00,
2013-03-13 14:30:00,37.7,30.2,29.94,NNW,337,5.0,6.0,74,0.00,,,0.00,274,Wunderground v.1.15,2013-03-13 18:30:00,
2013-03-13 14:36:00,38.6,29.7,29.93,West,279,5.0,8.0,70,0.00,,,0.00,192,Wunderground v.1.15,2013-03-13 18:36:00,
2013-03-13 14:42:00,39.6,28.8,29.93,NW,308,5.0,5.0,65,0.00,,,0.00,320,Wunderground v.1.15,2013-03-13 18:42:00,
2013-03-13 14:48:00,40.6,27.8,29.93,West,271,5.0,8.0,60,0.00,,,0.00,318,Wunderground v.1.15,2013-03-13 18:48:00,
2013-03-13 14:54:00,41.6,27.9,29.93,West,269,5.0,7.0,58,0.00,,,0.00,793,Wunderground v.1.15,2013-03-13 18:54:00,
2013-03-13 15:00:00,41.8,27.7,29.93,NNW,329,6.0,6.0,57,0.00,,,0.00,253,Wunderground v.1.15,2013-03-13 19:00:00,
2013-03-13 15:06:00,41.8,28.5,29.92,WNW,297,7.0,9.0,59,0.00,,,0.00,325,Wunderground v.1.15,2013-03-13 19:06:00,
2013-03-13 15:11:00,42.5,27.9,29.92,West,261,6.0,9.0,56,0.00,,,0.00,524,Wunderground v.1.15,2013-03-13 19:11:00,
2013-03-13 15:16:00,42.9,27.4,29.92,WSW,253,6.0,11.0,54,0.00,,,0.00,896,Wunderground v.1.15,2013-03-13 19:16:00,
2013-03-13 15:22:00,42.8,27.3,29.92,WNW,292,7.0,8.0,54,0.00,,,0.00,336,Wunderground v.1.15,2013-03-13 19:22:00,
2013-03-13 15:27:00,42.7,27.2,29.91,West,266,6.0,9.0,54,0.00,,,0.00,316,Wunderground v.1.15,2013-03-13 19:27:00,
2013-03-13 15:32:00,43.4,26.9,29.91,NW,316,6.0,10.0,52,0.00,,,0.00,246,Wunderground v.1.15,2013-03-13 19:32:00,
2013-03-13 15:39:00,43.8,26.8,29.91,NW,313,5.0,10.0,51,0.00,,,0.00,260,Wunderground v.1.15,2013-03-13 19:39:00,
2013-03-13 15:44:00,43.8,26.8,29.91,West,275,6.0,9.0,51,0.00,,,0.00,260,Wunderground v.1.15,2013-03-13 19:44:00,
2013-03-13 15:50:00,43.8,25.4,29.91,NNW,333,7.0,11.0,48,0.00,,,0.00,163,Wunderground v.1.15,2013-03-13 19:50:00,
2013-03-13 15:55:00,43.3,24.9,29.91,NW,319,9.0,11.0,48,0.00,,,0.00,171,Wunderground v.1.15,2013-03-13 19:55:00,
2013-03-13 16:00:00,43.2,23.8,29.91,WNW,298,8.0,8.0,46,0.00,,,0.00,104,Wunderground v.1.15,2013-03-13 20:00:00,
2013-03-13 16:06:00,42.7,23.8,29.91,WNW,287,9.0,10.0,47,0.00,,,0.00,148,Wunderground v.1.15,2013-03-13 20:06:00,
2013-03-13 16:11:00,43.1,23.7,29.91,West,280,9.0,9.0,46,0.00,,,0.00,167,Wunderground v.1.15,2013-03-13 20:11:00,
2013-03-13 16:18:00,43.6,22.0,29.91,West,271,8.0,11.0,42,0.00,,,0.00,146,Wunderground v.1.15,2013-03-13 20:18:00,
2013-03-13 16:24:00,43.5,22.5,29.92,WNW,295,8.0,9.0,43,0.00,,,0.00,169,Wunderground v.1.15,2013-03-13 20:24:00,
2013-03-13 16:29:00,43.3,22.8,29.91,NNW,333,8.0,9.0,44,0.00,,,0.00,221,Wunderground v.1.15,2013-03-13 20:29:00,
2013-03-13 16:35:00,43.6,22.5,29.91,NW,313,10.0,10.0,43,0.00,,,0.00,130,Wunderground v.1.15,2013-03-13 20:35:00,
2013-03-13 16:40:00,43.9,22.3,29.91,NW,306,10.0,10.0,42,0.00,,,0.00,441,Wunderground v.1.15,2013-03-13 20:40:00,
2013-03-13 16:46:00,44.1,22.4,29.91,NW,323,10.0,14.0,42,0.00,,,0.00,343,Wunderground v.1.15,2013-03-13 20:46:00,
2013-03-13 16:51:00,44.1,22.4,29.91,NNW,331,10.0,11.0,42,0.00,,,0.00,229,Wunderground v.1.15,2013-03-13 20:51:00,
2013-03-13 16:56:00,44.2,22.0,29.91,NW,310,9.0,14.0,41,0.00,,,0.00,290,Wunderground v.1.15,2013-03-13 20:56:00,
2013-03-13 17:02:00,43.8,21.0,29.91,NW,304,10.0,14.0,40,0.00,,,0.00,141,Wunderground v.1.15,2013-03-13 21:02:00,
2013-03-13 17:08:00,43.1,21.0,29.92,NNW,333,11.0,14.0,41,0.00,,,0.00,53,Wunderground v.1.15,2013-03-13 21:08:00,
2013-03-13 17:13:00,42.4,20.9,29.92,NNW,329,12.0,13.0,42,0.00,,,0.00,165,Wunderground v.1.15,2013-03-13 21:13:00,
2013-03-13 17:18:00,42.2,21.8,29.93,WNW,285,12.0,13.0,44,0.00,,,0.00,109,Wunderground v.1.15,2013-03-13 21:18:00,
2013-03-13 17:24:00,42.2,22.4,29.93,NNW,329,10.0,14.0,45,0.00,,,0.00,114,Wunderground v.1.15,2013-03-13 21:24:00,
2013-03-13 17:31:00,41.9,22.6,29.93,NW,306,10.0,10.0,46,0.00,,,0.00,93,Wunderground v.1.15,2013-03-13 21:31:00,
2013-03-13 17:37:00,41.6,21.8,29.93,NNE,15,10.0,13.0,45,0.00,,,0.00,123,Wunderground v.1.15,2013-03-13 21:37:00,
2013-03-13 17:43:00,41.7,23.4,29.94,WNW,298,11.0,15.0,48,0.00,,,0.00,104,Wunderground v.1.15,2013-03-13 21:43:00,
2013-03-13 17:49:00,41.8,25.0,29.94,NW,315,9.0,15.0,51,0.00,,,0.00,113,Wunderground v.1.15,2013-03-13 21:49:00,
2013-03-13 17:54:00,41.4,25.1,29.94,West,280,9.0,14.0,52,0.00,,,0.00,76,Wunderground v.1.15,2013-03-13 21:54:00,
2013-03-13 18:00:00,40.7,25.8,29.94,NW,325,9.0,9.0,55,0.00,,,0.00,69,Wunderground v.1.15,2013-03-13 22:00:00,
2013-03-13 18:06:00,40.4,25.9,29.95,WNW,298,8.0,10.0,56,0.00,,,0.00,42,Wunderground v.1.15,2013-03-13 22:06:00,
2013-03-13 18:10:00,40.2,25.3,29.95,WNW,298,8.0,8.0,55,0.00,,,0.00,53,Wunderground v.1.15,2013-03-13 22:10:00,
2013-03-13 18:16:00,40.2,25.3,29.95,NW,305,6.0,8.0,55,0.00,,,0.00,44,Wunderground v.1.15,2013-03-13 22:16:00,
2013-03-13 18:23:00,40.3,25.0,29.95,NNW,330,6.0,10.0,54,0.00,,,0.00,14,Wunderground v.1.15,2013-03-13 22:23:00,
2013-03-13 18:28:00,38.4,28.4,29.97,NW,323,10.0,22.0,67,0.00,,,0.00,0,Wunderground v.1.15,2013-03-13 22:28:00,
2013-03-13 18:34:00,35.9,30.3,29.97,WNW,301,14.0,16.0,80,0.00,,,0.00,0,Wunderground v.1.15,2013-03-13 22:34:00,
2013-03-13 18:39:00,35.0,30.4,29.97,WNW,300,11.0,16.0,83,0.00,,,0.00,9,Wunderground v.1.15,2013-03-13 22:39:00,
2013-03-13 18:45:00,35.0,30.4,29.97,West,281,7.0,10.0,83,0.00,,,0.00,49,Wunderground v.1.15,2013-03-13 22:45:00,
2013-03-13 18:50:00,35.2,30.6,29.97,NW,308,5.0,6.0,83,0.00,,,0.00,25,Wunderground v.1.15,2013-03-13 22:50:00,
2013-03-13 18:56:00,35.5,30.8,29.97,WNW,288,3.0,6.0,83,0.00,,,0.00,11,Wunderground v.1.15,2013-03-13 22:56:00,
2013-03-13 19:01:00,35.7,30.7,29.98,WNW,289,3.0,4.0,82,0.00,,,0.00,7,Wunderground v.1.15,2013-03-13 23:01:00,
2013-03-13 19:07:00,35.8,30.5,29.98,WNW,290,4.0,9.0,81,0.00,,,0.00,0,Wunderground v.1.15,2013-03-13 23:07:00,
2013-03-13 19:12:00,35.8,29.6,29.98,WNW,300,7.0,11.0,78,0.00,,,0.00,0,Wunderground v.1.15,2013-03-13 23:12:00,
2013-03-13 19:19:00,35.5,29.3,29.98,WNW,289,9.0,12.0,78,0.00,,,0.00,0,Wunderground v.1.15,2013-03-13 23:19:00,
2013-03-13 19:25:00,35.5,28.7,29.97,WSW,252,7.0,7.0,76,0.00,,,0.00,0,Wunderground v.1.15,2013-03-13 23:25:00,
2013-03-13 19:31:00,35.7,28.6,29.98,WNW,286,6.0,6.0,75,0.00,,,0.00,0,Wunderground v.1.15,2013-03-13 23:31:00,
2013-03-13 19:37:00,35.7,28.2,29.98,West,267,5.0,6.0,74,0.00,,,0.00,0,Wunderground v.1.15,2013-03-13 23:37:00,
2013-03-13 19:42:00,35.7,27.9,29.98,WSW,257,5.0,10.0,73,0.00,,,0.00,0,Wunderground v.1.15,2013-03-13 23:42:00,
2013-03-13 19:47:00,35.9,27.7,29.99,WNW,287,5.0,10.0,72,0.00,,,0.00,0,Wunderground v.1.15,2013-03-13 23:47:00,
2013-03-13 19:54:00,35.9,27.4,29.99,West,262,4.0,11.0,71,0.00,,,0.00,0,Wunderground v.1.15,2013-03-13 23:54:00,
2013-03-13 20:00:00,35.9,27.4,29.99,NW,309,4.0,4.0,71,0.00,,,0.00,0,Wunderground v.1.15,2013-03-14 00:00:00,
2013-03-13 20:06:00,35.9,27.1,29.99,WNW,298,4.0,8.0,70,0.00,,,0.00,0,Wunderground v.1.15,2013-03-14 00:06:00,
2013-03-13 20:12:00,35.9,26.7,30.00,NW,304,5.0,7.0,69,0.00,,,0.00,0,Wunderground v.1.15,2013-03-14 00:12:00,
2013-03-13 20:17:00,35.6,26.8,30.00,WNW,294,7.0,10.0,70,0.00,,,0.00,0,Wunderground v.1.15,2013-03-14 00:17:00,
2013-03-13 20:22:00,35.5,25.3,30.00,NNW,339,8.0,15.0,66,0.00,,,0.00,0,Wunderground v.1.15,2013-03-14 00:22:00,
2013-03-13 20:28:00,35.2,25.0,30.00,NNW,328,9.0,15.0,66,0.00,,,0.00,0,Wunderground v.1.15,2013-03-14 00:28:00,
2013-03-13 20:34:00,34.9,24.3,30.01,NNW,342,8.0,12.0,65,0.00,,,0.00,0,Wunderground v.1.15,2013-03-14 00:34:00,
2013-03-13 20:39:00,34.7,24.5,30.01,WNW,297,8.0,9.0,66,0.00,,,0.00,0,Wunderground v.1.15,2013-03-14 00:39:00,
2013-03-13 20:45:00,34.6,24.4,30.01,West,277,8.0,11.0,66,0.00,,,0.00,0,Wunderground v.1.15,2013-03-14 00:45:00,
2013-03-13 20:51:00,34.6,24.0,30.01,NW,306,7.0,7.0,65,0.00,,,0.00,0,Wunderground v.1.15,2013-03-14 00:51:00,
2013-03-13 20:57:00,34.6,24.0,30.01,NW,318,6.0,8.0,65,0.00,,,0.00,0,Wunderground v.1.15,2013-03-14 00:57:00,
2013-03-13 21:03:00,34.4,23.8,30.02,West,267,6.0,9.0,65,0.00,,,0.00,0,Wunderground v.1.15,2013-03-14 01:03:00,
2013-03-13 21:08:00,34.4,23.8,30.02,NW,307,6.0,9.0,65,0.00,,,0.00,0,Wunderground v.1.15,2013-03-14 01:08:00,
2013-03-13 21:15:00,34.2,23.7,30.02,NW,319,7.0,9.0,65,0.00,,,0.00,0,Wunderground v.1.15,2013-03-14 01:15:00,
2013-03-13 21:21:00,34.0,23.5,30.02,NW,305,8.0,10.0,65,0.00,,,0.00,0,Wunderground v.1.15,2013-03-14 01:21:00,
2013-03-13 21:27:00,33.7,23.2,30.02,West,273,10.0,13.0,65,0.00,,,0.00,0,Wunderground v.1.15,2013-03-14 01:27:00,
2013-03-13 21:33:00,33.5,22.6,30.02,WNW,297,10.0,11.0,64,0.00,,,0.00,0,Wunderground v.1.15,2013-03-14 01:33:00,
2013-03-13 21:39:00,33.3,22.1,30.02,NW,321,9.0,11.0,63,0.00,,,0.00,0,Wunderground v.1.15,2013-03-14 01:39:00,
2013-03-13 21:44:00,33.1,22.2,30.02,West,269,8.0,11.0,64,0.00,,,0.00,0,Wunderground v.1.15,2013-03-14 01:44:00,
2013-03-13 21:49:00,33.0,21.0,30.03,NNW,333,10.0,10.0,61,0.00,,,0.00,0,Wunderground v.1.15,2013-03-14 01:49:00,
2013-03-13 21:55:00,32.8,20.4,30.03,WNW,299,11.0,12.0,60,0.00,,,0.00,0,Wunderground v.1.15,2013-03-14 01:55:00,
2013-03-13 22:01:00,32.8,20.4,30.04,WNW,302,10.0,10.0,60,0.00,,,0.00,0,Wunderground v.1.15,2013-03-14 02:01:00,
2013-03-13 22:06:00,32.8,20.8,30.03,WNW,291,8.0,10.0,61,0.00,,,0.00,0,Wunderground v.1.15,2013-03-14 02:06:00,
2013-03-13 22:12:00,32.8,20.4,30.03,WNW,302,6.0,7.0,60,0.00,,,0.00,0,Wunderground v.1.15,2013-03-14 02:12:00,
2013-03-13 22:19:00,32.6,19.8,30.03,West,277,5.0,5.0,59,0.00,,,0.00,0,Wunderground v.1.15,2013-03-14 02:19:00,
2013-03-13 22:25:00,32.5,19.7,30.04,West,267,5.0,6.0,59,0.00,,,0.00,0,Wunderground v.1.15,2013-03-14 02:25:00,
2013-03-13 22:32:00,32.5,18.9,30.04,WNW,284,6.0,10.0,57,0.00,,,0.00,0,Wunderground v.1.15,2013-03-14 02:32:00,
2013-03-13 22:37:00,32.4,18.8,30.04,WNW,284,6.0,10.0,57,0.00,,,0.00,0,Wunderground v.1.15,2013-03-14 02:37:00,
2013-03-13 22:43:00,32.3,18.8,30.04,WNW,285,5.0,6.0,57,0.00,,,0.00,0,Wunderground v.1.15,2013-03-14 02:43:00,
2013-03-13 22:48:00,32.3,18.3,30.04,NW,305,5.0,8.0,56,0.00,,,0.00,0,Wunderground v.1.15,2013-03-14 02:48:00,
2013-03-13 22:54:00,32.3,17.5,30.04,NNW,331,7.0,12.0,54,0.00,,,0.00,0,Wunderground v.1.15,2013-03-14 02:54:00,
2013-03-13 23:00:00,32.3,17.5,30.04,WNW,302,8.0,8.0,54,0.00,,,0.00,0,Wunderground v.1.15,2013-03-14 03:00:00,
2013-03-13 23:05:00,32.3,16.6,30.04,NW,311,7.0,12.0,52,0.00,,,0.00,0,Wunderground v.1.15,2013-03-14 03:05:00,
2013-03-13 23:10:00,32.3,16.6,30.04,NW,324,7.0,9.0,52,0.00,,,0.00,0,Wunderground v.1.15,2013-03-14 03:10:00,
2013-03-13 23:16:00,32.2,16.5,30.04,NNW,331,8.0,11.0,52,0.00,,,0.00,0,Wunderground v.1.15,2013-03-14 03:16:00,
2013-03-13 23:21:00,32.1,16.4,30.04,NW,310,9.0,12.0,52,0.00,,,0.00,0,Wunderground v.1.15,2013-03-14 03:21:00,
2013-03-13 23:28:00,32.0,16.8,30.04,NNW,329,9.0,12.0,53,0.00,,,0.00,0,Wunderground v.1.15,2013-03-14 03:28:00,
2013-03-13 23:34:00,32.0,16.8,30.04,NW,309,9.0,13.0,53,0.00,,,0.00,0,Wunderground v.1.15,2013-03-14 03:34:00,
2013-03-13 23:39:00,32.0,17.2,30.04,NW,319,9.0,9.0,54,0.00,,,0.00,0,Wunderground v.1.15,2013-03-14 03:39:00,
2013-03-13 23:45:00,31.9,17.5,30.05,WNW,292,9.0,12.0,55,0.00,,,0.00,0,Wunderground v.1.15,2013-03-14 03:45:00,
2013-03-13 23:50:00,31.7,17.4,30.05,NW,306,9.0,9.0,55,0.00,,,0.00,0,Wunderground v.1.15,2013-03-14 03:50:00,
2013-03-13 23:56:00,31.7,17.4,30.05,WNW,282,8.0,11.0,55,0.00,,,0.00,0,Wunderground v.1.15,2013-03-14 03:56:00,